This demonstration page uses our WeatherBlox Daily Observations layout. Learn more.

Left ArrowRight Arrow

34.02893, -84.19858

Hourly Observations for November 30, 2016

Temp ( °F °C ) Dew Point ( °F °C ) Humidity (%) Winds ( mph kmh ) Pressure ( in mb ) Visibility ( mi km ) Precip ( " mm )
12:14 am 00:14 Cloudy 66 19 64 18 94 94 S 12 19 29.85 1011 10 16 0.00 0.00
12:16 am 00:16 Cloudy 66 19 64 18 94 94 S 13 20 29.85 1011 10 16 0.00 0.00
12:32 am 00:32 Cloudy 66 19 64 18 94 94 S 13 20 29.85 1011 10 16 0.00 0.00
12:40 am 00:40 Cloudy 66 19 64 18 94 94 S 13 20 29.85 1011 10 16 0.00 0.00
12:53 am 00:53 Cloudy 67 19.4 64 17.8 91 91 S 10 17 29.85 1011 10 16 0.00 0.00
1:23 am 01:23 Cloudy 68 20 64 17.8 87 87 S 12 19 29.85 1011 10 16 0.00 0.00
1:53 am 01:53 Cloudy 68 20 63 17.2 84 84 S 12 19 29.85 1011 10 16 0.00 0.00
2:03 am 02:03 Mostly Cloudy 68 20 63 17 83 83 S 12 19 29.85 1011 10 16 0.00 0.00
2:53 am 02:53 Mostly Clear 67 19.4 63 17.2 87 87 S 10 17 29.83 1010 10 16 0.00 0.00
3:53 am 03:53 Mostly Cloudy 66 18.9 63 17.2 90 90 S 8 13 29.83 1010 10 16 0.00 0.00
4:08 am 04:08 Mostly Cloudy 66 18.9 63 17.2 90 90 S 9 15 29.83 1010 10 16 0.00 0.00
4:53 am 04:53 Mostly Cloudy 66 18.9 63 17.2 90 90 S 12 19 29.83 1010 10 16 0.00 0.00
5:17 am 05:17 Mostly Cloudy 66 19 63 17 88 88 S 10 17 29.83 1010 10 16 0.00 0.00
5:51 am 05:51 Cloudy 66 19 63 17 88 88 S 9 15 29.83 1010 10 16 0.00 0.00
5:53 am 05:53 Cloudy 66 18.9 63 17.2 90 90 S 9 15 29.83 1010 10 16 0.00 0.00
6:53 am 06:53 Cloudy 65 18.3 62 16.7 90 90 SSW 10 17 29.83 1010 10 16 0.00 0.00
7:53 am 07:53 Cloudy 66 18.9 63 17.2 90 90 S 10 17 29.82 1010 8 13 0.00 0.00
8:15 am 08:15 Cloudy 66 18.9 63 17.2 90 90 S 9 15 29.83 1010 9 14 0.00 0.00
8:53 am 08:53 Cloudy 67 19.4 63 17.2 87 87 S 13 20 29.82 1010 10 16 0.00 0.00
9:53 am 09:53 Cloudy 69 20.6 62 16.7 78 78 S 16 26 29.80 1009 10 16 0.00 0.00
10:53 am 10:53 Cloudy 69 20.6 62 16.7 78 78 S 12 19 29.78 1008 10 16 0.00 0.00
11:00 am 11:00 Cloudy 70 21 63 17 78 78 S 13 20 29.77 1008 10 16 0.00 0.00
11:07 am 11:07 Cloudy 70 21.1 62 16.7 76 76 S 14 22 29.77 1008 10 16 0.00 0.00
11:53 am 11:53 Cloudy 70 21.1 62 16.7 76 76 S 14 22 29.75 1007 10 16 0.00 0.00
12:00 pm 12:00 Cloudy 70 21 63 17 78 78 S 12 19 29.74 1007 10 16 0.00 0.00
12:42 pm 12:42 Cloudy 72 22 63 17 73 73 S 12 19 29.68 1005 10 16 0.00 0.00
12:50 pm 12:50 Mostly Cloudy 72 22 63 17 73 73 S 14 22 29.68 1005 10 16 0.00 0.00
12:53 pm 12:53 Mostly Cloudy 71 21.7 62 16.7 73 73 SSE 9 15 29.70 1006 10 16 0.00 0.00
1:49 pm 13:49 Cloudy 72 22 63 17 73 73 SSE 10 17 29.65 1004 10 16 0.00 0.00
1:53 pm 13:53 Cloudy with Light Rain 70 21.1 62 16.7 76 76 SSE 10 17 29.64 1004 10 16 0.00 0.03
1:58 pm 13:58 Cloudy with Light Rain 70 21 63 17 78 78 SSW 14 22 29.68 1005 2 2 0.00 0.00
2:09 pm 14:09 Cloudy with Nearby Thunderstorms 64 17.8 61 16.1 90 90 WNW 14 22 29.71 1006 1 1 0.38 9.65
2:15 pm 14:15 Cloudy with Strong Thunderstorms 64 17.8 60 15.6 87 87 W 13 20 29.68 1005 1 1 0.45 11.43
2:25 pm 14:25 Cloudy with Heavy Rain 63 17 61 16 94 94 W 9 15 29.71 1006 1 2 0.00 0.00
2:34 pm 14:34 Cloudy with Heavy Rain 63 17 61 16 94 94 W 8 13 29.71 1006 1 1 0.00 0.00
2:38 pm 14:38 Cloudy with Rain 63 17 61 16 94 94 WSW 8 13 29.71 1006 1 2 0.00 0.00
2:44 pm 14:44 Cloudy with Heavy Rain 63 17 61 16 94 94 SW 6 9 29.71 1006 1 1 0.00 0.00
2:50 pm 14:50 Cloudy with Nearby Thunderstorms 63 17 61 16 94 94 VRB 7 11 29.71 1006 1 2 0.00 0.00
2:53 pm 14:53 Cloudy with Nearby Thunderstorms 63 17.2 61 16.1 93 93 VRB 3 6 29.70 1006 1 2 0.76 19.30
3:09 pm 15:09 Cloudy with Rain 63 17.2 61 16.1 93 93 SW 6 9 29.71 1006 2 3 0.05 1.27
3:16 pm 15:16 Cloudy with Rain 63 17 61 16 94 94 VRB 6 9 29.68 1005 2 3 0.00 0.00
3:32 pm 15:32 Cloudy with Rain 63 17 61 16 94 94 SW 9 15 29.68 1005 3 5 0.00 0.00
3:53 pm 15:53 Cloudy with Light Rain 62 16.7 60 15.6 93 93 VRB 3 6 29.68 1005 5 8 0.14 3.56
4:37 pm 16:37 Mostly Cloudy 63 17 61 16 94 94 W 10 17 29.71 1006 10 16 0.00 0.00
4:53 pm 16:53 Cloudy 63 17.2 60 15.6 90 90 WSW 10 17 29.75 1007 10 16 0.00 0.03
5:53 pm 17:53 Cloudy 63 17.2 60 15.6 90 90 WSW 8 13 29.77 1008 10 16 0.00 0.03
6:04 pm 18:04 Cloudy 63 17 61 16 94 94 W 9 15 29.77 1008 10 16 0.00 0.00
6:53 pm 18:53 Partly Cloudy 61 16.1 57 13.9 87 87 WSW 5 7 29.78 1009 10 16 0.00 0.00
7:53 pm 19:53 Clear 59 15 54 12.2 83 83 W 6 9 29.81 1009 10 16 0.00 0.00
8:53 pm 20:53 Clear 57 13.9 53 11.7 87 87 WSW 6 9 29.83 1010 10 16 0.00 0.00
9:53 pm 21:53 Clear 56 13.3 48 8.9 75 75 W 9 15 29.84 1010 10 16 0.00 0.00
10:53 pm 22:53 Clear 54 12.2 44 6.7 69 69 WNW 12 19 29.86 1011 10 16 0.00 0.00
11:53 pm 23:53 Clear 52 11.1 42 5.6 69 69 WNW 13 20 29.88 1012 10 16 0.00 0.00

Powered by AerisWeather